[[{"header":{"parameterUnit":"m.s-1","parameterCategory":1,"la1":30.2992,"la2":30.254,"lo1":-89.0895,"lo2":-89.0443,"dy":0.0025,"dx":0.0025,"nx":19,"ny":19,"refTime":"2026-05-05T21:00:00:Z","depth":0,"parameterNumber":2,"parameterNumberName":"U-component_of_WINDS"},"data":[0,0,0,0.8391,0.839,0.8342,0.8342,0.8297,0.8297,0,0,0,0,0,0,0,0,0,0,0,0.8416,0.8416,0.8391,0.839,0.8342,0.8342,0.8297,0.8297,0,0,0,0,0,0,0,0,0,0,0,0.8416,0.8416,0.8416,0.839,0.8342,0.8342,0.8297,0.8327,0,0,0,0,0,0,0,0,0,0,0.8371,0.8405,0.8416,0.8416,0.8389,0.8342,0.8342,0.8328,0.8325,0.8326,0,0.8331,0,0.8313,0.8295,0.8295,0,0,0,0.8381,0.8408,0.8385,0.8416,0.8389,0.8342,0.8361,0.8326,0.8323,0.8322,0.833,0.8328,0.8313,0.8295,0.8295,0.833,0.8331,0,0,0.8384,0.8413,0.8387,0.8383,0.8393,0.8363,0.836,0.8324,0.8334,0.833,0.8326,0.8312,0.8295,0.8294,0.833,0.833,0,0,0,0.8397,0.8415,0.8393,0.8385,0.8376,0.8362,0.8358,0.8335,0.8326,0.8326,0.8311,0.8294,0.8294,0.8329,0.833,0.8386,0,0,0,0.8398,0.8423,0.8394,0.8412,0.8377,0.8355,0.8371,0.8328,0.8323,0.8311,0.8294,0.8294,0.8328,0.8329,0.8383,0.8408,0,0,0,0.8415,0.8425,0.8422,0.8413,0.8394,0.8355,0.8343,0.8327,0.8315,0.8295,0.8294,0.8328,0.8329,0.838,0.8403,0.8425,0,0,0,0.8441,0.8472,0.8423,0.8452,0.8395,0.8391,0.8343,0.8338,0.8328,0.8294,0.8328,0.833,0.838,0.84,0.8423,0.8449,0.8463,0,0,0.8496,0.8479,0.8494,0.8449,0.8461,0.8396,0.8416,0.8378,0.8349,0.8338,0.8338,0.8384,0.8403,0.8425,0.8531,0.8542,0,0,0,0.8521,0.8532,0.8529,0.8521,0.8494,0.8472,0.8428,0.8414,0.8404,0.835,0.8397,0.8407,0.8419,0.843,0.844,0.8448,0.8336,0.8336,0.8336,0.864,0.8602,0.8623,0.858,0.8573,0.8528,0.8518,0.8491,0.8455,0.8467,0.8463,0.8532,0.8546,0.8553,0.8562,0.8474,0.8474,0.8474,0.8475,0.8716,0.8726,0.8677,0.8681,0.864,0.8642,0.86,0.8574,0.857,0.8532,0.854,0.8502,0.8567,0.8572,0.8478,0.8478,0.8477,0.8477,0.8477,0.879,0.8788,0.8771,0.8755,0.8747,0.8702,0.87,0.8663,0.8628,0.8636,0.8628,0.8627,0.8621,0.8635,0.8635,0.8636,0.8636,0.8636,0.8636,0.8872,0.8851,0.8855,0.8829,0.8819,0.8801,0.8757,0.8745,0.8723,0.8696,0.8696,0.8658,0.8581,0.8562,0.864,0.8639,0.8639,0.8638,0.8638,0.8963,0.8937,0.8943,0.8933,0.8899,0.8894,0.8847,0.8827,0.8812,0.8812,0.8773,0.8722,0.8702,0.8694,0.8678,0.8781,0.8781,0.8781,0.8781,0.9025,0.9012,0.9009,0.8996,0.8978,0.8937,0.8943,0.8909,0.8869,0.8857,0.8837,0.8813,0.8807,0.879,0.878,0.8765,0.8888,0.8888,0.8888,0.9078,0.9062,0.9075,0.9037,0.9008,0.8984,0.8989,0.8975,0.8924,0.8891,0.8847,0.8843,0.8803,0.8793,0.8759,0.8745,0.8716,0,0]},{"header":{"parameterUnit":"m.s-1","parameterCategory":1,"la1":30.2992,"la2":30.254,"lo1":-89.0895,"lo2":-89.0443,"dy":0.0025,"dx":0.0025,"nx":19,"ny":19,"refTime":"2026-05-05T21:00:00:Z","depth":0,"parameterNumber":3,"parameterNumberName":"V-component_of_WINDS"},"data":[0,0,0,7.432,7.4324,7.4512,7.4512,7.4747,7.4749,0,0,0,0,0,0,0,0,0,0,0,7.4267,7.4268,7.432,7.4325,7.4511,7.4512,7.4746,7.4749,0,0,0,0,0,0,0,0,0,0,0,7.4266,7.4268,7.427,7.4325,7.4511,7.4512,7.4746,7.4605,0,0,0,0,0,0,0,0,0,0,7.4424,7.4377,7.4267,7.427,7.4327,7.4511,7.4512,7.4598,7.4614,7.4661,0,7.4708,0,7.4733,7.4764,7.4765,0,0,0,7.4322,7.4364,7.4414,7.427,7.4328,7.4511,7.4426,7.4607,7.4625,7.4682,7.4711,7.472,7.4736,7.4766,7.4767,7.5062,7.5063,0,0,7.4312,7.43,7.4402,7.4425,7.4402,7.442,7.4432,7.4618,7.4647,7.4712,7.4726,7.474,7.4768,7.4769,7.506,7.5062,0,0,0,7.4284,7.4293,7.4338,7.4416,7.445,7.4426,7.444,7.4639,7.4655,7.4728,7.4743,7.4769,7.4772,7.5059,7.5061,7.5126,0,0,0,7.4277,7.4276,7.4333,7.4328,7.4447,7.4548,7.4457,7.4642,7.4663,7.4742,7.4769,7.4774,7.5057,7.506,7.5121,7.5158,0,0,0,7.4253,7.4274,7.4302,7.4327,7.4408,7.4545,7.4572,7.4647,7.4673,7.4766,7.4775,7.5056,7.5059,7.5116,7.5151,7.5234,0,0,0,7.4223,7.4354,7.4303,7.4454,7.4406,7.4586,7.4571,7.4704,7.4791,7.477,7.5057,7.5061,7.5115,7.5146,7.5229,7.5302,7.5332,0,0,7.4381,7.4372,7.4463,7.4422,7.4609,7.4558,7.4753,7.4841,7.4857,7.4991,7.4999,7.5123,7.515,7.5233,7.5502,7.5525,0,0,0,7.4509,7.4573,7.4625,7.4711,7.4785,7.4851,7.4912,7.4945,7.506,7.4926,7.5175,7.5192,7.524,7.5276,7.5296,7.5339,7.5077,7.5076,7.5076,7.4714,7.4733,7.4884,7.4926,7.5008,7.5072,7.5139,7.5193,7.5184,7.5243,7.5283,7.5445,7.5486,7.5501,7.5545,7.5323,7.5323,7.5323,7.5323,7.4947,7.5042,7.5032,7.5175,7.5193,7.531,7.5376,7.5366,7.5476,7.5415,7.5459,7.5391,7.5527,7.5566,7.5329,7.5328,7.5327,7.5327,7.5326,7.5084,7.5133,7.5175,7.5302,7.5397,7.5432,7.5541,7.5552,7.5562,7.5605,7.5649,7.5648,7.5648,7.5625,7.5626,7.5627,7.5627,7.5628,7.5628,7.521,7.5255,7.5348,7.544,7.5497,7.5573,7.5638,7.5693,7.5757,7.5755,7.5756,7.5741,7.5537,7.5486,7.5637,7.5635,7.5634,7.5633,7.5633,7.544,7.5391,7.5534,7.5592,7.5701,7.5795,7.5808,7.592,7.5966,7.6019,7.5996,7.5843,7.5833,7.5817,7.5775,7.5992,7.5992,7.5992,7.5992,7.5556,7.5554,7.5704,7.5796,7.5887,7.5915,7.6073,7.6124,7.6169,7.6198,7.6168,7.6113,7.6096,7.6096,7.6074,7.6035,7.6313,7.6313,7.6314,7.5699,7.5707,7.5841,7.589,7.5976,7.6049,7.6198,7.63,7.6339,7.6327,7.6222,7.6208,7.6119,7.6089,7.6073,7.6039,7.5967,0,0]}]]